Regional Weather Roundup
Issued by NWS Wilmington, NC

Home | Current Version | Previous Version | Text Only | Print | Product List | Glossary On
Versions: 1 2 3 4 5 6 7 8 9 10 11 12 13 14 15 16 17 18 19 20 21 22 23 24 25 26 27
000
ASUS42 KILM 160513
RWRILM
RWRILM
REGIONAL HOURLY WEATHER ROUNDUP
NATIONAL WEATHER SERVICE WILMINGTON NC
1200 AM EST SAT DEC 16 2017

NOTE: "FAIR" INDICATES FEW OR NO CLOUDS BELOW 12,000 FEET WITH NO
SIGNIFICANT WEATHER AND/OR OBSTRUCTIONS TO VISIBILITY.

...............WFO WILMINGTON COUNTY WARNING AREA...............

......COASTAL NC AND SC COUNTIES......

CITY           SKY/WX    TMP DP  RH WIND       PRES   REMARKS
WILMINGTON     CLOUDY    40  30  67 NW6       30.12R
N MYRTLE BEACH CLOUDY    45  34  65 N3        30.12R
MYRTLE BEACH   CLOUDY    46  34  62 N8        30.14R

......INLAND NC AND SC COUNTIES.......

CITY           SKY/WX    TMP DP  RH WIND       PRES   REMARKS
LUMBERTON      CLEAR     31  30  96 W3        30.13R
ELIZABETHTOWN  NOT AVBL
WHITEVILLE     CLEAR     41  32  69 CALM      30.13R
FLORENCE       CLEAR     37  32  82 CALM      30.15R
DARLINGTON     CLEAR     32  30  92 NW3       30.16R
KINGSTREE      FAIR      41  32  70 CALM      30.14R
HARTSVILLE     FAIR      32  30  93 CALM      30.14R
BENNETTSVILLE  FAIR      32  32 100 CALM      30.15R
CONWAY         FAIR      41  34  75 CALM      30.14R
GEORGETOWN     FAIR      46  34  61 NW3       30.14R
MARION         FAIR      36  32  87 CALM      30.15R

....................REST OF NORTH CAROLINA......................

.........EASTERN NC.........

CITY           SKY/WX    TMP DP  RH WIND       PRES   REMARKS
CAPE HATTERAS  PTCLDY    42  30  62 N10G20    30.07R
JACKSONVILLE   CLEAR     33  29  85 CALM      30.12R
MOREHEAD CITY  MOCLDY    40  29  64 N9        30.10R WCI  34
KENANSVILLE    CLEAR     30  27  86 CALM      30.12R
NEW BERN       CLEAR     36  30  79 W3        30.12R
ELIZABETH CITY CLEAR     31  27  85 W5        30.08R WCI  26

.........CENTRAL NC.........

CITY           SKY/WX    TMP DP  RH WIND       PRES   REMARKS
RALEIGH DURHAM CLEAR     31  23  72 W3        30.13R
ROCKY MOUNT    CLEAR     34  26  72 W5        30.11R WCI  30
ROANOKE RAPIDS NOT AVBL
FAYETTEVILLE   CLEAR     38  29  70 NW6       30.13R WCI  33
HOFFMAN        PTCLDY    26  24  91 NW3       30.13R

.........WESTERN NC.........

CITY           SKY/WX    TMP DP  RH WIND       PRES   REMARKS
CHARLOTTE      CLEAR     31  21  66 N5        30.13S WCI  26
GREENSBORO     PTCLDY    27  19  72 NW7       30.10S WCI  19
HICKORY        NOT AVBL
BOONE          NOT AVBL
ASHEVILLE      NOT AVBL

.....................REST OF SOUTH CAROLINA.....................

.........EASTERN SC.........

CITY           SKY/WX    TMP DP  RH WIND       PRES   REMARKS
CHARLESTON     CLOUDY    49  31  49 NW10      30.14R
BEAUFORT MCAS  MOCLDY    50  31  48 NW9       30.17R
HILTON HEAD    CLOUDY    50  30  46 VRB5G13   30.16R

.........CENTRAL SC.........

CITY           SKY/WX    TMP DP  RH WIND       PRES   REMARKS
COLUMBIA       CLEAR     36  28  73 W7        30.16R WCI  30
ORANGEBURG     CLEAR     41  26  55 NW7       30.17R
SUMTER SHAW    CLEAR     42  28  57 W7        30.14R

.........WESTERN SC.........

CITY           SKY/WX    TMP DP  RH WIND       PRES   REMARKS
GREENVILLE     NOT AVBL
ROCK HILL      CLEAR     28  23  81 CALM      30.14R
ANDERSON       CLEAR     32  24  72 SW5       30.15R WCI  27
CLEMSON        NOT AVBL
GREENWOOD      CLEAR     31  24  75 SW3       30.17R


...................COASTAL AND OFFSHORE REPORTS..................

................LOCAL PIERS AND NC RESERVE................


STATION/POSITION TIME  SKY/WX   TEMP    WIND        PRES    VSBY
                                AIR SEA DIR/SP/G
                 (UTC)          (F)     (DEG/KT/KT) (MB)    (MI)
JOHNY MRCER PIER 0448            45 56  330/  6/  8 1019.7R
NC RESRV MASNBRO 0345            47      10/  2     1019.0
OCEAN CREST PIER NOT AVBL
SPRINGMAID  PIER 0448                               1022.9R


................COASTAL AND OFFSHORE BUOYS................


STATION/POSITION TIME  SKY/WX   TEMP    WIND        PRES    VSBY
                                AIR SEA DIR/SP/G
                 (UTC)          (F)     (DEG/KT/KT) (MB)    (MI)
DIMNDSHOAL 41025 0500            47 73  330/ 21/ 29 1018.0
CAPE LOOKOUT     0500                   340/ 10/ 11 1019.4R
ONSLOW BAY 41036 NOT AVBL
ONSLOW BAY 41064 0408            50 64  350/ 16/ 21 1018.7R
ONSLOW BAY 41159 0500               64                N/A
WVE H/P(F/S)=  5/ 5

MASNBO INL 41110 0459               56                N/A
WVE H/P(F/S)=  2/ 7

WILM HARBR 41108 0500               57                N/A
WVE H/P(F/S)=  4/ 6

27SE WRITB 41037 0408            51 64  350/ 17/ 27 1018.9R
FRYING PAN 41013 0500            54 68  360/ 16/ 19 1018.8
SUNST NRSH 41024 0408            49     360/  8/ 10 1019.3R
CAPRS NRSH 41029 0408            51 56  310/ 14/ 17 1019.6R
EDISTO     41004 0500            57 72  310/ 17/ 23 1019.6


..........OFFSHORE BUOYS BEYOND 100 NM OFFSHORE...........
.....IN A TRIANGLE---HAT TO BERMUDA TO BAHAMAS TO HAT.....


STATION/POSITION TIME  SKY/WX   TEMP    WIND        PRES    VSBY
                                AIR SEA DIR/SP/G
                 (UTC)          (F)     (DEG/KT/KT) (MB)    (MI)
150E HAT   41001 NOT AVBL
W BERMUDA  41048 0500            74 74  240/ 25/ 31 1015.3
ATLANTIC S 41049 0450            75 77  210/  6/ 10 1022.0F
WVE H/P(F/S)=  6/ 9 SWL H/P/D(F/S/D)=  7/330/ 9

E BAHAMAS  41046 0500            79 80  110/ 10/ 12 1020.9
NE BAHAMAS 41047 0500            71     240/ 10/ 12 1020.5
120E CANVRL41010 NOT AVBL

END




USA.gov is the U.S. government's official web portal to all federal, state and local government web resources and services.